#timestamp,LO_Frequency,Hit,StdDev 
1626321615.3,286047002.5,Y
1626321635.2,286047002.3,P
1626321655.0,286047000.9,N
1626321655.9,286047000.9,N
1626321675.7,286046999.9,N
1626321695.6,286047001.7,N
1626321715.4,286047001.5,N
1626321735.3,286047001.9,N
1626321755.1,286047001.5,N
1626321756.0,286047011.9,Y
1626321775.8,286047000.6,P
1626321795.7,286046998.9,P
1626321815.5,286046997.2,N
1626321835.3,286046997.9,N
1626321855.2,286046999.3,N
1626321875.0,286046996.7,N
1626321875.9,286046996.7,N
1626321895.8,286046998.8,N
1626321915.6,286046999.0,N
1626321935.5,286046997.7,N
1626321955.3,286046997.2,N
1626321975.1,286046996.6,N
1626321995.9,286046997.8,N
1626322015.7,286046995.3,Y
1626322035.6,286046997.7,P
1626322055.4,286046995.3,P
1626322075.2,286046995.5,P
1626322095.1,286046995.2,Y
1626322096.0,286046995.2,P
1626322115.8,286046998.1,N
1626322135.6,286047000.5,N
1626322155.5,286047000.0,N
1626322175.3,286047000.0,N
1626322195.2,286047000.3,N
1626322215.9,286046998.1,N
1626322235.7,286046998.1,N
1626322255.6,286047001.1,N
1626322275.4,286047000.7,N
1626322295.2,286047001.0,N
1626322315.1,286046999.7,N
1626322316.0,286046999.7,N
1626322335.8,286047002.0,N
1626322355.7,286047001.3,N
1626322375.5,286047003.2,N
1626322395.3,286047004.3,N
1626322415.2,286047003.6,N
1626322435.0,286047003.4,N
1626322435.9,286047003.4,N
1626322455.7,286047004.6,N
1626322475.6,286047007.5,Y
1626322495.4,286047007.0,P
1626322515.3,286047009.2,N
1626322535.1,286047006.3,N
1626322536.0,286047006.3,N
1626322555.8,286047009.1,Y
1626322575.7,286047002.4,P
1626322595.5,286046999.9,N
1626322615.4,286047002.3,N
1626322635.2,286047001.8,N
1626322655.0,286047001.5,N
1626322655.9,286047001.5,N
1626322675.8,286047004.3,N
1626322695.6,286047003.8,N
1626322715.4,286047003.9,N
1626322735.3,286047004.2,N
1626322755.1,286047004.4,N
1626322775.9,286047003.1,N
1626322795.7,286047005.6,Y
1626322815.5,286047002.3,P
1626322835.4,286047002.3,P
1626322855.2,286047001.9,P
1626322875.0,286047002.0,Y
1626322876.0,286047002.0,P
1626322895.8,286046998.7,P
1626322915.6,286046998.8,N
1626322935.5,286047000.4,N
1626322955.3,286047001.2,N
1626322975.1,286046999.2,N
1626322995.9,286046998.2,N
1626323015.7,286047000.7,N
1626323035.5,286047000.4,N
1626323055.4,286047000.9,N
1626323075.2,286046998.3,N
1626323095.1,286046998.2,N
1626323096.0,286046998.2,N
1626323115.8,286047001.0,N
1626323135.6,286047001.2,N
1626323155.5,286047000.4,N
1626323175.3,286047000.0,N
1626323195.1,286046998.8,N
1626323215.9,286046999.8,N
1626323235.7,286047002.6,N
1626323255.6,286047002.3,N
1626323275.4,286047002.3,N
1626323295.2,286047000.6,N
1626323315.1,286046999.7,N
1626323316.0,286046999.7,N
1626323335.8,286047002.6,N
1626323355.6,286047002.3,N
1626323375.5,286046999.9,N
1626323395.3,286046999.9,N
1626323415.2,286046999.9,N
1626323435.9,286047000.1,N
1626323455.7,286047002.1,N
1626323475.6,286047004.3,Y
1626323495.4,286047003.6,P
1626323515.3,286047003.8,N
1626323535.1,286047003.9,N
1626323536.0,286047003.9,N
1626323555.8,286047003.4,N
1626323575.7,286047003.3,N
1626323595.5,286047004.1,Y
1626323615.3,286047000.0,P
1626323635.2,286047000.1,N
1626323655.0,286047000.2,N
1626323655.9,286047000.2,N
1626323675.8,286047000.3,N
1626323695.6,286046999.8,N
1626323715.4,286046999.7,N
1626323735.3,286046999.9,N
1626323755.1,286047002.7,N
1626323775.8,286047000.4,N
1626323795.7,286046998.5,N
1626323815.5,286046998.4,N
1626323835.4,286046998.9,N
1626323855.2,286046999.0,N
1626323875.0,286046997.6,N
1626323875.9,286046997.6,N
1626323895.8,286046997.3,N
1626323915.6,286046995.7,N
1626323935.5,286046995.3,N
1626323955.3,286046997.7,N
1626323975.1,286046996.8,N
1626323995.9,286046997.4,N
1626324015.7,286046997.5,N
1626324035.5,286046997.0,N
1626324055.4,286046999.5,N
1626324075.2,286046998.1,N
1626324095.1,286047000.8,N
1626324096.0,286047000.8,N
1626324115.8,286046999.4,N
1626324135.6,286046997.2,N
1626324155.5,286047000.9,N
1626324175.3,286047000.7,N
1626324195.1,286046998.9,N
1626324215.9,286046999.0,N
1626324235.7,286046996.9,N
1626324255.6,286046996.6,N
1626324275.4,286046999.1,N
1626324295.2,286046998.2,N
1626324315.1,286046998.1,N
1626324316.0,286046998.1,N
1626324335.8,286046999.9,N
1626324355.6,286047000.3,N
1626324375.5,286047000.4,N
1626324395.3,286046998.7,N
1626324415.2,286046999.4,N
1626324435.0,286046999.0,N
1626324435.9,286046999.0,N
1626324455.7,286046999.5,N
1626324475.6,286046996.7,N
1626324495.4,286046997.1,N
1626324515.3,286046997.0,N
1626324535.1,286046996.6,N
1626324536.0,286046996.6,N
1626324555.8,286046997.0,N
1626324575.7,286046999.1,N
1626324595.5,286046999.3,N
1626324615.3,286047001.0,N
1626324635.2,286046999.3,N
1626324655.0,286046999.1,N
1626324655.9,286046999.1,N
1626324675.8,286046999.1,N
1626324695.6,286046995.5,Y
1626324715.4,286046998.0,P
1626324735.3,286046997.8,P
1626324755.1,286046998.9,P
1626324775.8,286046999.4,N
1626324795.7,286046997.1,Y
1626324815.5,286046998.2,P
1626324835.4,286047000.2,N
1626324855.2,286047002.7,P
1626324875.0,286046999.0,N
1626324875.9,286046999.0,N
1626324895.8,286046994.9,Y
1626324915.6,286046996.6,P
1626324935.5,286046998.5,N
1626324955.3,286046998.2,N
1626324975.1,286046999.1,N
1626324995.9,286046999.8,N
1626325015.7,286047001.0,N
1626325035.5,286047000.7,N
1626325055.4,286046998.1,N
1626325075.2,286046999.2,N
1626325095.1,286046997.3,N
1626325096.0,286046997.3,N
1626325115.8,286046999.2,N
1626325135.6,286046998.7,N
1626325155.5,286046997.0,N
1626325175.3,286046997.6,N
1626325195.2,286046996.6,N
